星链-11128 (STARLINK-11128)

导读

STARLINK-11128是美国SpaceX公司星链项目的卫星,于2024年7月28日发射入轨,归属于星链低轨宽带卫星互联网星座。星链星座通过部署数千颗低轨卫星,为全球偏远、基础设施薄弱区域提供高速低延迟宽带服务。STARLINK-11128的入轨进一步扩充了星链星座规模,助力提升星座覆盖范围、服务容量与网络稳定性,是SpaceX持续推进全球互联布局的组成部分。

Basic Information
目录编号:
60302
目录名称:
STARLINK-11128
国际标识:
2024-133B
轨道中心:
EARTH
卫星名称:
星链-11128 (STARLINK-11128)
卫星全名:
星链-11128 (STARLINK-11128)
卫星状态:
在轨 (已飞行730 天)
发射日期:
2024-07-28 UTC
国别 :
美国 (US)
星等 :
--
Orbit Information
数据来源 国际轨道数据 AOE轨道数据
星历时间 2026-07-27T12:48:16+0800
20小时前
查看轨道信息
2026-07-22T07:00:00+0800
6天前
查看轨道信息
半长轴 6737.925km 6737.806km
偏心率 0.0001094 0.0001109
轨道倾角 53.160° 53.159°
近地点辐角 84.169° 119.542°
升交点赤经 178.649° 204.489°
平近点角 275.945° 122.132°
近地点 359.05km 358.921km
远地点 360.526km 360.417km
周期 91.738分钟 91.736分钟
每日圈数 15.696888 15.697302
Detailed Information
卫星平台:
Starlink v2.0 mini
运营商:
太空探索技术公司
运营商所在国:
美国
制造商(研发单位):
太空探索技术公司
制造商所在国:
美国
使用方式:
暂无
Satellite Introduction
星链(Starlink)计划是由太空探索技术公司(SpaceX)提出的一个巨型低轨卫星互联网星座项目,计划在2019年至2024年间在太空搭建由约1.2万颗卫星组成的“星链”网络,其中1584颗将部署在地球上空550千米处的近地轨道,并从2020年开始工作。该卫星仍在工作。
2D Orbit Map
3D Orbit Map
Orbit Altitude Analysis Chart
Orbit Inclination Analysis Chart
Orbit Comprehensive Analysis Chart
View Comprehensive Chart